Other Public Products
Issued by NWS Grand Forks, ND

Home | Current Version | Previous Version | Graphics & Text | Print | Product List | Glossary On
Versions: 1 2 3 4 5 6 7 8 9 10 11 12 13 14 15 16 17 18 19 20 21 22 23 24 25 26 27 28 29 30 31 32 33 34 35 36 37 38 39 40 41 42 43 44 45 46 47 48 49 50
000
FPUS83 KFGF 211010
OPUFGF
PRAIRIE TO PINES WEATHER ROUNDUP
NATIONAL WEATHER SERVICE EASTERN NORTH DAKOTA/GRAND FORKS ND
500 AM CDT TUE OCT 21 2014

 **SATELLITE DATA USED TO AUGMENT SKY COVER AT AUTOMATED STATIONS**
 *****  WEATHER ACROSS EASTERN NORTH DAKOTA  *****

CITY           SKY/WX    TMP DP  RH WIND       PRES   REMARKS
GRAND FORKS    CLEAR     39  36  89 SE12      30.03F
GRAND FORKS AF CLEAR     37  37  99 S8        30.03F
GRAND CITY NWS   N/A     37 N/A N/A SE7         N/A
BUXTON         NOT AVBL
DEVILS LAKE    CLEAR     46  34  61 SE16      29.94F
FARGO          CLEAR     44  38  79 SE15      30.05S
WAHPETON ARPT  SUNNY     39  34  81 SE9       30.08S
$$

 *****  WEATHER ACROSS CENTRAL AND WESTERN NORTH DAKOTA  *****

CITY           SKY/WX    TMP DP  RH WIND       PRES   REMARKS
JAMESTOWN      CLEAR     46  38  73 SE14      29.96F
BISMARCK       CLEAR     54  36  50 SE13      29.87F
MINOT          CLEAR     52  34  50 SE13      29.84F
MINOT AFB      CLEAR     40  36  86 SE8       29.84F
GARRISON         N/A     50  36  58 SE10      29.85F
WILLISTON      CLEAR     40  37  89 CALM      29.77F
DICKINSON      CLEAR     41  35  79 SE8       29.78F
HETTINGER      CLEAR     42  36  79 CALM      29.81F
$$

 *****  OTHER OBSERVATIONS NORTHEAST NORTH DAKOTA  *****

CITY           SKY/WX    TMP DP  RH WIND       PRES   REMARKS
WALHALLA       FAIR      39  39 100 SE13      30.00F
LANGDON        FAIR      39  36  87 SE13      29.97F
CAVALIER       FAIR      37  36  93 SE7       30.02F
GRAFTON        FAIR      36  36 100 SE10      30.03F
CANDO          FAIR      45  39  81 SE10      29.95F
FORT TOTTEN      N/A     47  38  71 S15       29.95S
ROLLA          FAIR      41  41 100 S9        29.94F
RUGBY          FAIR      46  39  76 SE12      29.90S
 ***** THE ABOVE OBSERVATIONS ARE NON NWS ARE NOT QUALITY
        CONTROLLED AND MAY MIS-REPORT RAIN FOR SNOW...
$$

 *****  OTHER OBSERVATIONS SOUTHEAST NORTH DAKOTA *****

CITY           SKY/WX    TMP DP  RH WIND       PRES   REMARKS
COOPERSTOWN    NOT AVBL
VALLEY CITY    FAIR      45  39  81 SE13      30.00F
OAKES            N/A     43  41  93 SE12      29.99F
GWINNER        SUNNY     43  37  81 SE8       30.03F
BUFFALO        NOT AVBL
WYNDMERE         N/A     39  37  93 SE8         N/A
 ***** THE ABOVE OBSERVATIONS ARE NON NWS ARE NOT QUALITY
       CONTROLLED AND MAY MIS-REPORT RAIN FOR SNOW...
$$

  *****  WEATHER ACROSS NORTHERN MINNESOTA  *****

CITY           SKY/WX    TMP DP  RH WIND       PRES   REMARKS
FLAG ISLAND    CLEAR     43  37  81 SE18      30.11S
WARROAD        CLEAR     36  32  87 SE7       30.11F
ROSEAU         CLEAR     37  34  87 SE7       30.09F
HALLOCK        CLEAR     39  37  93 SE10      30.04F
THF RVR FALLS  CLEAR     36  34  93 SE9       30.08S
HALSTAD          N/A     39  37  94 SE9         N/A
FOSSTON        CLEAR     37  34  87 SE10      30.09S
BAUDETTE       PTCLDY    34  31  88 SE6       30.14R
WASKISH        PTCLDY    30  30 100 CALM      30.14R
CROOKSTON      CLEAR     39  37  93 SE10      30.06F
$$
  *****  WEATHER ACROSS CENTRAL AND WEST MINNESOTA  *****

CITY           SKY/WX    TMP DP  RH WIND       PRES   REMARKS
BEMIDJI        CLEAR     33  33  98 SE6       30.12S
PARK RAPIDS    FAIR      37  36  96 SE9       30.12S
WADENA         CLEAR     34  34 100 E5        30.12R
DETROIT LAKES  CLEAR     39  37  93 SE10      30.10S
MOORHEAD       CLEAR     43  43 100 SE6       30.07S
FERGUS FALLS   CLEAR     43  36  75 SE10      30.10S
ELBOW LAKE     FAIR      41  37  86 SE10      30.09S
MORRIS MN      CLEAR     41  37  87 SE9       30.09R
STAPLES        CLEAR     34  34 100 CALM      30.13S
WHEATON        CLEAR     34  30  86 SE8       30.10R
$$
  *****  WEATHER ELSEWHERE ACROSS MINNESOTA  *****

CITY           SKY/WX    TMP DP  RH WIND       PRES   REMARKS
DULUTH         CLOUDY    43  37  79 E10       30.17R
INTRNTL FALLS  CLOUDY    40  34  79 SE7       30.16S
ELY            CLOUDY    37  32  81 E3        30.18R
CLOQUET        CLOUDY    43  37  81 E5        30.17R
BRAINERD       CLEAR     29  29 100 CALM      30.15S
HIBBING        CLOUDY    40  34  79 SE3       30.17R
ALEXANDRIA     CLEAR     39  36  89 SE9       30.13R
SAINT CLOUD    CLEAR     40  35  83 E3        30.15R
MINNEAPOLIS    CLEAR     38  36  92 N3        30.15R
$$

  *****  WEATHER ACROSS SOUTH DAKOTA  *****

CITY           SKY/WX    TMP DP  RH WIND       PRES   REMARKS
SIOUX FALLS    CLEAR     42  36  79 CALM      30.08R
BROOKINGS      NOT AVBL
WATERTOWN      CLEAR     45  37  73 SE8       30.05S
HURON          CLEAR     47  36  65 SE13      30.00F
SISSETON         N/A     39  37  92 S8        30.06S
ABERDEEN       CLEAR     46  39  76 SE8       29.98F
MITCHELL       CLEAR     47  37  68 SE9       30.03S
PIERRE         CLEAR     53  39  59 SE14      29.88F
MOBRIDGE       CLEAR     55  40  56 SE12      29.84F
RAPID CITY     CLEAR     49  40  71 SE5       29.85S
$$

  *****  SOME WEATHER IN NEARBY STATES *****

CITY           SKY/WX    TMP DP  RH WIND       PRES   REMARKS
GLASGOW MT     CLEAR     47  37  68 E13       29.69F
GREAT FALLS MT CLEAR     58  35  42 S12       29.67S
CHEYENNE WY    CLEAR     46  34  62 W13       30.05F
SCOTTSBLUFF NE CLEAR     49  41  74 E7        29.96F
OMAHA NE       CLEAR     43  39  86 CALM      30.10R
DES MOINES IA  CLEAR     46  41  82 N3        30.10R
DAVENPORT IA   CLEAR     38  35  89 NW6       30.10R
CHICAGO IL     CLOUDY    49  41  74 N10       30.04R
EAU CLAIRE WI  CLEAR     34  33  96 NE3       30.15R FOG
LA CROSSE WI   CLEAR     39  37  92 N6        30.14R
$$

  *****  SOME NATIONAL WEATHER *****

CITY           SKY/WX    TMP DP  RH WIND       PRES   REMARKS
LA GUARDIA NY  CLOUDY    57  46  66 S3        29.90S
RALEIGH NC     PTCLDY    53  49  86 CALM      29.92S
ATLANTA GA     CLEAR     54  49  83 W3        30.00R
NEW ORLEANS LA CLEAR     60  54  80 CALM      30.01R
OKLAHOMA CITY  CLEAR     61  58  90 SE3       30.06R
ALBUQUERQUE NM PTCLDY    53  47  79 N6        30.15F
SALT LAKE CITY MOCLDY    62  40  44 SE12      29.88F
LOS ANGELES CA MOCLDY    64  62  93 E3        29.90S
BOISE ID       LGT RAIN  50  47  89 NW12      29.92R
SEATTLE WA     CLOUDY    54  50  86 SW5       29.83S
$$

*** WEATHER ACROSS MANITOBA...SASKATCHEWAN AND ONTARIO ***
                ***ONTARIO***

CITY           SKY/WX    TMP DP  RH WIND       PRES   REMARKS
GERALDTON      CLEAR     23  23 100 CALM      30.24R
THUNDER BAY    PTCLDY    27  27 100 SW2       30.24R
SIOUX LOOKOUT  CLOUDY    36  32  87 S9        30.19R
TORONTO        CLOUDY    50  46  87 W5        29.79R
BIG TROUT LK   CLOUDY    34  32  93 S14G20    30.16F WCI  24
PICKLE LAKE    NOT AVBL
DRYDEN         CLOUDY    37  32  81 SE10      30.16S
KENORA         NOT AVBL
$$
                *** MANITOBA***

CITY           SKY/WX    TMP DP  RH WIND       PRES   REMARKS
BRANDON        CLEAR     43  39  87 SE10      29.90F
DAUPHIN        CLEAR     37  36  93 E6        29.82F
ISLAND LAKE    CLOUDY    37  36  93 SE12G18   30.02F
PILOT MOUND      N/A     41  36  81 S12         N/A
THE PAS        CLEAR     43  41  93 SE14      29.69F
THOMPSON       CLOUDY    39  36  87 S10       29.79F
WINNIPEG       CLEAR     39  36  87 SE15      30.02F
LYNN LAKE      CLOUDY    41  39  93 S9G17     29.64F
CHURCHILL      CLOUDY    36  32  87 S18G28    29.79F
GILLAM         CLOUDY    37  34  87 S14G22    29.89F
$$
                ***SASKATCHEWAN***

CITY           SKY/WX    TMP DP  RH WIND       PRES   REMARKS
ESTEVAN        CLEAR     39  37  93 E8        29.78S
KINDERSLEY     PTCLDY    43  36  75 S10       29.61S
LLOYDMINSTER   CLEAR     45  32  61 CALM      29.48F
PRINCE ALBERT  PTCLDY    34  34 100 E7        29.59F
REGINA         CLEAR     45  41  87 SE13      29.71F
YORKTON        CLEAR     45  37  76 S14       29.74F



USA.gov is the U.S. government's official web portal to all federal, state and local government web resources and services.